User: anonymous   Login
Location: Newark
(33.6333°S, 78.8500°W)
Time: 08:42:25
(UTC+00:00)
Language:

A-11 Canister half - Orbit

View from above orbital plane
View from above orbital plane
View from above satellite
View from above satellite

Ground track
Ground track

The orbit data is extracted from the following two-line orbital elements,

1    53U 60009E   19266.45703628 -.00000133 +00000-0 -47107-3 0  9993
2    53 047.2788 005.4346 0097014 009.3568 350.9002 12.17228989635923
Epoch (UTC): 23 September 2019 10:58:07
Eccentricity: 0.0097014
inclination: 47.2788°
perigee height: 1527 km
apogee height: 1682 km
right ascension of ascending node: 5.4346°
argument of perigee: 9.3568°
revolutions per day: 12.17228989
mean anomaly at epoch: 350.9002°
orbit number at epoch: 63592

The dashed part of the orbit path shows where the satellite is in the earth's shadow,  

DLR